Time,TemperatureF,DewpointF,PressureIn,WindDirection,WindDirectionDegrees,WindSpeedMPH,WindSpeedGustMPH,Humidity,HourlyPrecipIn,Conditions,Clouds,dailyrainin,SoftwareType,DateUTC
2013-02-05 00:01:00,56.0,40.0,29.96,NNW,338,0.0,0.0,54,0.00,,,0.00,,2013-02-05 07:01:00,
2013-02-05 00:11:00,56.0,40.0,29.96,NNW,338,0.0,0.0,54,0.00,,,0.00,,2013-02-05 07:11:00,
2013-02-05 00:22:00,56.0,40.0,29.96,NNW,338,0.0,0.0,54,0.00,,,0.00,,2013-02-05 07:22:00,
2013-02-05 00:31:00,55.0,40.0,29.96,NNW,338,0.0,0.0,56,0.00,,,0.00,,2013-02-05 07:31:00,
2013-02-05 00:41:00,55.0,40.0,29.96,NNW,338,0.0,0.0,56,0.00,,,0.00,,2013-02-05 07:41:00,
2013-02-05 00:52:00,55.0,40.0,29.96,NNW,338,0.0,0.0,57,0.00,,,0.00,,2013-02-05 07:52:00,
2013-02-05 01:01:00,55.0,41.0,29.96,NNW,338,0.0,0.0,58,0.00,,,0.00,,2013-02-05 08:01:00,
2013-02-05 01:11:00,55.0,41.0,29.96,NNW,338,0.0,0.0,58,0.00,,,0.00,,2013-02-05 08:11:00,
2013-02-05 01:21:00,55.0,41.0,29.96,NNW,338,0.0,0.0,59,0.00,,,0.00,,2013-02-05 08:21:00,
2013-02-05 01:31:00,54.0,40.0,29.96,NNW,338,0.0,0.0,59,0.00,,,0.00,,2013-02-05 08:31:00,
2013-02-05 01:41:00,54.0,40.0,29.96,NNW,338,0.0,0.0,59,0.00,,,0.00,,2013-02-05 08:41:00,
2013-02-05 01:52:00,54.0,40.0,29.96,NNW,338,0.0,0.0,60,0.00,,,0.00,,2013-02-05 08:52:00,
2013-02-05 02:02:00,53.0,40.0,29.95,NNW,338,0.0,0.0,61,0.00,,,0.00,,2013-02-05 09:02:00,
2013-02-05 02:11:00,54.0,40.0,29.95,NNW,338,0.0,0.0,59,0.00,,,0.00,,2013-02-05 09:11:00,
2013-02-05 02:21:00,54.0,40.0,29.95,NNW,338,0.0,0.0,59,0.00,,,0.00,,2013-02-05 09:21:00,
2013-02-05 02:31:00,54.0,40.0,29.95,NNW,338,0.0,0.0,60,0.00,,,0.00,,2013-02-05 09:31:00,
2013-02-05 02:41:00,54.0,40.0,29.95,NNW,338,0.0,0.0,60,0.00,,,0.00,,2013-02-05 09:41:00,
2013-02-05 02:51:00,53.0,40.0,29.94,NNW,338,0.0,0.0,61,0.00,,,0.00,,2013-02-05 09:51:00,
2013-02-05 03:01:00,53.0,40.0,29.94,NNW,338,0.0,0.0,61,0.00,,,0.00,,2013-02-05 10:01:00,
2013-02-05 03:11:00,53.0,40.0,29.94,NNW,338,0.0,0.0,61,0.00,,,0.00,,2013-02-05 10:11:00,
2013-02-05 03:21:00,53.0,40.0,29.94,NNW,338,0.0,0.0,61,0.00,,,0.00,,2013-02-05 10:21:00,
2013-02-05 03:31:00,52.0,39.0,29.94,NNW,338,0.0,2.0,61,0.00,,,0.00,,2013-02-05 10:31:00,
2013-02-05 03:42:00,52.0,39.0,29.94,NNW,338,0.0,2.0,61,0.00,,,0.00,,2013-02-05 10:42:00,
2013-02-05 03:52:00,53.0,39.0,29.94,NNW,338,0.0,0.0,60,0.00,,,0.00,,2013-02-05 10:52:00,
2013-02-05 04:01:00,53.0,39.0,29.94,NNW,338,0.0,0.0,60,0.00,,,0.00,,2013-02-05 11:01:00,
2013-02-05 04:11:00,53.0,39.0,29.94,NNW,338,0.0,0.0,60,0.00,,,0.00,,2013-02-05 11:11:00,
2013-02-05 04:21:00,52.0,39.0,29.94,NNW,338,0.0,0.0,61,0.00,,,0.00,,2013-02-05 11:21:00,
2013-02-05 04:31:00,52.0,39.0,29.94,NNW,338,0.0,0.0,61,0.00,,,0.00,,2013-02-05 11:31:00,
2013-02-05 04:41:00,52.0,39.0,29.94,NNW,338,0.0,0.0,61,0.00,,,0.00,,2013-02-05 11:41:00,
2013-02-05 04:52:00,52.0,39.0,29.94,NNW,338,0.0,0.0,61,0.00,,,0.00,,2013-02-05 11:52:00,
2013-02-05 05:01:00,52.0,39.0,29.94,NNW,338,0.0,0.0,61,0.00,,,0.00,,2013-02-05 12:01:00,
2013-02-05 05:12:00,52.0,39.0,29.94,NNW,338,0.0,0.0,61,0.00,,,0.00,,2013-02-05 12:12:00,
2013-02-05 05:21:00,52.0,39.0,29.94,NNW,338,0.0,0.0,62,0.00,,,0.00,,2013-02-05 12:21:00,
2013-02-05 05:31:00,52.0,40.0,29.95,NNW,338,0.0,0.0,63,0.00,,,0.00,,2013-02-05 12:31:00,
2013-02-05 05:41:00,52.0,40.0,29.95,NNW,338,0.0,0.0,63,0.00,,,0.00,,2013-02-05 12:41:00,
2013-02-05 05:52:00,52.0,39.0,29.94,NNW,338,0.0,0.0,62,0.00,,,0.00,,2013-02-05 12:52:00,
2013-02-05 06:01:00,53.0,39.0,29.95,North,0,1.0,2.0,60,0.00,,,0.00,,2013-02-05 13:01:00,
2013-02-05 06:11:00,53.0,39.0,29.95,North,0,0.0,0.0,59,0.00,,,0.00,,2013-02-05 13:11:00,
2013-02-05 06:21:00,53.0,39.0,29.95,North,0,0.0,0.0,59,0.00,,,0.00,,2013-02-05 13:21:00,
2013-02-05 06:31:00,53.0,39.0,29.95,North,0,0.0,1.0,60,0.00,,,0.00,,2013-02-05 13:31:00,
2013-02-05 06:41:00,53.0,39.0,29.95,North,0,0.0,1.0,60,0.00,,,0.00,,2013-02-05 13:41:00,
2013-02-05 06:52:00,52.0,39.0,29.95,North,0,0.0,0.0,61,0.00,,,0.00,,2013-02-05 13:52:00,
2013-02-05 07:01:00,52.0,39.0,29.95,North,0,0.0,1.0,61,0.00,,,0.00,,2013-02-05 14:01:00,
2013-02-05 07:11:00,52.0,39.0,29.95,North,0,0.0,1.0,61,0.00,,,0.00,,2013-02-05 14:11:00,
2013-02-05 07:21:00,52.0,40.0,29.95,North,0,0.0,1.0,63,0.00,,,0.00,,2013-02-05 14:21:00,
2013-02-05 07:31:00,52.0,39.0,29.96,North,0,1.0,1.0,62,0.00,,,0.00,,2013-02-05 14:31:00,
2013-02-05 07:41:00,52.0,39.0,29.96,North,0,1.0,1.0,62,0.00,,,0.00,,2013-02-05 14:41:00,
2013-02-05 07:52:00,52.0,39.0,29.96,North,0,1.0,2.0,62,0.00,,,0.00,,2013-02-05 14:52:00,
2013-02-05 08:01:00,52.0,39.0,29.96,North,0,1.0,3.0,61,0.00,,,0.00,,2013-02-05 15:01:00,
2013-02-05 08:11:00,52.0,39.0,29.96,North,0,1.0,3.0,61,0.00,,,0.00,,2013-02-05 15:11:00,
2013-02-05 08:21:00,53.0,39.0,29.96,North,0,0.0,1.0,60,0.00,,,0.00,,2013-02-05 15:21:00,
2013-02-05 08:32:00,53.0,39.0,29.96,North,0,0.0,0.0,60,0.00,,,0.00,,2013-02-05 15:32:00,
2013-02-05 08:41:00,53.0,39.0,29.96,North,0,0.0,0.0,60,0.00,,,0.00,,2013-02-05 15:41:00,
2013-02-05 08:52:00,55.0,41.0,29.96,North,0,2.0,3.0,58,0.00,,,0.00,,2013-02-05 15:52:00,
2013-02-05 09:01:00,56.0,40.0,29.97,North,0,1.0,3.0,55,0.00,,,0.00,,2013-02-05 16:01:00,
2013-02-05 09:11:00,56.0,40.0,29.97,North,0,1.0,3.0,55,0.00,,,0.00,,2013-02-05 16:11:00,
2013-02-05 09:22:00,58.0,41.0,29.97,NNE,23,3.0,6.0,53,0.00,,,0.00,,2013-02-05 16:22:00,
2013-02-05 09:32:00,59.0,41.0,29.97,NE,45,3.0,5.0,51,0.00,,,0.00,,2013-02-05 16:32:00,
2013-02-05 09:41:00,59.0,41.0,29.97,NE,45,3.0,5.0,51,0.00,,,0.00,,2013-02-05 16:41:00,
2013-02-05 09:52:00,60.0,43.0,29.98,NE,45,2.0,3.0,53,0.00,,,0.00,,2013-02-05 16:52:00,
2013-02-05 10:01:00,61.0,42.0,29.98,NE,45,2.0,3.0,50,0.00,,,0.00,,2013-02-05 17:01:00,
2013-02-05 10:11:00,61.0,42.0,29.98,NE,45,2.0,3.0,50,0.00,,,0.00,,2013-02-05 17:11:00,
2013-02-05 10:21:00,62.0,43.0,29.98,NE,45,2.0,3.0,50,0.00,,,0.00,,2013-02-05 17:21:00,
2013-02-05 10:32:00,64.0,42.0,30.00,NE,45,2.0,3.0,45,0.00,,,0.00,,2013-02-05 17:32:00,
2013-02-05 10:41:00,64.0,42.0,30.00,NE,45,2.0,3.0,45,0.00,,,0.00,,2013-02-05 17:41:00,
2013-02-05 10:52:00,66.0,42.0,30.00,NE,45,1.0,2.0,42,0.00,,,0.00,,2013-02-05 17:52:00,
2013-02-05 11:01:00,67.0,43.0,30.00,NE,45,1.0,2.0,42,0.00,,,0.00,,2013-02-05 18:01:00,
2013-02-05 11:11:00,67.0,43.0,30.00,NE,45,1.0,2.0,42,0.00,,,0.00,,2013-02-05 18:11:00,
2013-02-05 11:21:00,69.0,43.0,30.00,NE,45,1.0,3.0,39,0.00,,,0.00,,2013-02-05 18:21:00,
2013-02-05 11:31:00,70.0,42.0,29.99,NE,45,2.0,3.0,36,0.00,,,0.00,,2013-02-05 18:31:00,
2013-02-05 11:42:00,70.0,42.0,29.99,NE,45,2.0,3.0,36,0.00,,,0.00,,2013-02-05 18:42:00,
2013-02-05 11:52:00,72.0,42.0,29.99,NNE,23,2.0,3.0,34,0.00,,,0.00,,2013-02-05 18:52:00,
2013-02-05 12:01:00,73.0,42.0,29.99,NNE,23,1.0,3.0,33,0.00,,,0.00,,2013-02-05 19:01:00,
2013-02-05 12:11:00,73.0,42.0,29.99,NNE,23,1.0,3.0,33,0.00,,,0.00,,2013-02-05 19:11:00,
2013-02-05 12:21:00,74.0,42.0,29.98,North,0,1.0,1.0,32,0.00,,,0.00,,2013-02-05 19:21:00,
2013-02-05 12:31:00,76.0,44.0,29.98,North,0,1.0,3.0,32,0.00,,,0.00,,2013-02-05 19:31:00,
2013-02-05 12:42:00,76.0,44.0,29.98,North,0,1.0,3.0,32,0.00,,,0.00,,2013-02-05 19:42:00,
2013-02-05 12:52:00,76.0,43.0,29.97,NNW,338,1.0,2.0,31,0.00,,,0.00,,2013-02-05 19:52:00,
2013-02-05 13:01:00,77.0,46.0,29.96,NW,315,5.0,7.0,33,0.00,,,0.00,,2013-02-05 20:01:00,
2013-02-05 13:11:00,77.0,46.0,29.96,NW,315,5.0,7.0,33,0.00,,,0.00,,2013-02-05 20:11:00,
2013-02-05 13:21:00,77.0,44.0,29.95,WNW,293,2.0,3.0,31,0.00,,,0.00,,2013-02-05 20:21:00,
2013-02-05 13:31:00,77.0,44.0,29.94,WNW,293,2.0,3.0,31,0.00,,,0.00,,2013-02-05 20:31:00,
2013-02-05 13:41:00,77.0,44.0,29.94,WNW,293,2.0,3.0,31,0.00,,,0.00,,2013-02-05 20:41:00,
2013-02-05 13:52:00,79.0,42.0,29.93,WNW,293,2.0,3.0,27,0.00,,,0.00,,2013-02-05 20:52:00,
2013-02-05 14:01:00,79.0,41.0,29.93,WNW,293,1.0,2.0,26,0.00,,,0.00,,2013-02-05 21:01:00,
2013-02-05 14:11:00,79.0,41.0,29.93,WNW,293,1.0,2.0,26,0.00,,,0.00,,2013-02-05 21:11:00,
2013-02-05 14:21:00,80.0,41.0,29.92,WNW,293,1.0,3.0,25,0.00,,,0.00,,2013-02-05 21:21:00,
2013-02-05 14:31:00,80.0,40.0,29.91,WNW,293,2.0,3.0,24,0.00,,,0.00,,2013-02-05 21:31:00,
2013-02-05 14:41:00,80.0,40.0,29.91,WNW,293,2.0,3.0,24,0.00,,,0.00,,2013-02-05 21:41:00,
2013-02-05 14:52:00,80.0,39.0,29.90,West,270,2.0,3.0,23,0.00,,,0.00,,2013-02-05 21:52:00,
2013-02-05 15:01:00,81.0,40.0,29.89,West,270,2.0,3.0,23,0.00,,,0.00,,2013-02-05 22:01:00,
2013-02-05 15:11:00,81.0,40.0,29.89,West,270,2.0,3.0,23,0.00,,,0.00,,2013-02-05 22:11:00,
2013-02-05 15:21:00,80.0,38.0,29.89,West,270,2.0,3.0,22,0.00,,,0.00,,2013-02-05 22:21:00,
2013-02-05 15:31:00,81.0,36.0,29.89,West,270,2.0,3.0,20,0.00,,,0.00,,2013-02-05 22:31:00,
2013-02-05 15:41:00,81.0,36.0,29.89,West,270,2.0,3.0,20,0.00,,,0.00,,2013-02-05 22:41:00,
2013-02-05 15:52:00,80.0,40.0,29.88,West,270,2.0,2.0,24,0.00,,,0.00,,2013-02-05 22:52:00,
2013-02-05 16:01:00,80.0,39.0,29.87,West,270,2.0,3.0,23,0.00,,,0.00,,2013-02-05 23:01:00,
2013-02-05 16:11:00,80.0,39.0,29.87,West,270,2.0,3.0,23,0.00,,,0.00,,2013-02-05 23:11:00,
2013-02-05 16:21:00,79.0,36.0,29.87,West,270,2.0,3.0,21,0.00,,,0.00,,2013-02-05 23:21:00,
2013-02-05 16:31:00,78.0,35.0,29.87,West,270,0.0,1.0,21,0.00,,,0.00,,2013-02-05 23:31:00,
2013-02-05 16:41:00,78.0,35.0,29.87,West,270,0.0,1.0,21,0.00,,,0.00,,2013-02-05 23:41:00,
2013-02-05 16:52:00,78.0,35.0,29.87,West,270,1.0,2.0,21,0.00,,,0.00,,2013-02-05 23:52:00,
2013-02-05 17:01:00,79.0,36.0,29.87,West,270,2.0,3.0,21,0.00,,,0.00,,2013-02-06 00:01:00,
2013-02-05 17:11:00,79.0,36.0,29.87,West,270,2.0,3.0,21,0.00,,,0.00,,2013-02-06 00:11:00,
2013-02-05 17:21:00,78.0,35.0,29.87,West,270,2.0,3.0,21,0.00,,,0.00,,2013-02-06 00:21:00,
2013-02-05 17:31:00,77.0,37.0,29.86,West,270,1.0,2.0,24,0.00,,,0.00,,2013-02-06 00:31:00,
2013-02-05 17:41:00,77.0,37.0,29.86,West,270,1.0,2.0,24,0.00,,,0.00,,2013-02-06 00:41:00,
2013-02-05 17:52:00,76.0,37.0,29.86,West,270,2.0,3.0,24,0.00,,,0.00,,2013-02-06 00:52:00,
2013-02-05 18:01:00,75.0,38.0,29.86,West,270,1.0,2.0,26,0.00,,,0.00,,2013-02-06 01:01:00,
2013-02-05 18:11:00,75.0,38.0,29.86,West,270,1.0,2.0,26,0.00,,,0.00,,2013-02-06 01:11:00,
2013-02-05 18:21:00,74.0,38.0,29.86,West,270,0.0,1.0,27,0.00,,,0.00,,2013-02-06 01:21:00,
2013-02-05 18:31:00,73.0,38.0,29.85,West,270,0.0,0.0,28,0.00,,,0.00,,2013-02-06 01:31:00,
2013-02-05 18:41:00,73.0,38.0,29.85,West,270,0.0,0.0,28,0.00,,,0.00,,2013-02-06 01:41:00,
2013-02-05 18:52:00,72.0,40.0,29.85,West,270,0.0,0.0,31,0.00,,,0.00,,2013-02-06 01:52:00,
2013-02-05 19:01:00,70.0,39.0,29.86,West,270,0.0,0.0,32,0.00,,,0.00,,2013-02-06 02:01:00,
2013-02-05 19:11:00,70.0,39.0,29.86,West,270,0.0,0.0,32,0.00,,,0.00,,2013-02-06 02:11:00,
2013-02-05 19:21:00,69.0,39.0,29.86,West,270,0.0,0.0,34,0.00,,,0.00,,2013-02-06 02:21:00,
2013-02-05 19:31:00,68.0,39.0,29.86,West,270,0.0,0.0,35,0.00,,,0.00,,2013-02-06 02:31:00,
2013-02-05 19:41:00,68.0,39.0,29.86,West,270,0.0,0.0,35,0.00,,,0.00,,2013-02-06 02:41:00,
2013-02-05 19:52:00,67.0,39.0,29.86,West,270,0.0,0.0,36,0.00,,,0.00,,2013-02-06 02:52:00,
2013-02-05 20:02:00,66.0,40.0,29.87,West,270,0.0,0.0,38,0.00,,,0.00,,2013-02-06 03:02:00,
2013-02-05 20:11:00,66.0,40.0,29.87,West,270,0.0,0.0,38,0.00,,,0.00,,2013-02-06 03:11:00,
2013-02-05 20:21:00,65.0,40.0,29.87,West,270,0.0,0.0,40,0.00,,,0.00,,2013-02-06 03:21:00,
2013-02-05 20:31:00,64.0,41.0,29.87,West,270,0.0,0.0,43,0.00,,,0.00,,2013-02-06 03:31:00,
2013-02-05 20:41:00,64.0,41.0,29.87,West,270,0.0,0.0,43,0.00,,,0.00,,2013-02-06 03:41:00,
2013-02-05 20:52:00,63.0,41.0,29.88,West,270,0.0,0.0,44,0.00,,,0.00,,2013-02-06 03:52:00,
2013-02-05 21:01:00,63.0,41.0,29.88,West,270,0.0,0.0,45,0.00,,,0.00,,2013-02-06 04:01:00,
2013-02-05 21:11:00,63.0,41.0,29.88,West,270,0.0,0.0,45,0.00,,,0.00,,2013-02-06 04:11:00,
2013-02-05 21:21:00,63.0,41.0,29.88,West,270,0.0,0.0,45,0.00,,,0.00,,2013-02-06 04:21:00,
2013-02-05 21:31:00,62.0,41.0,29.88,West,270,0.0,0.0,46,0.00,,,0.00,,2013-02-06 04:31:00,
2013-02-05 21:41:00,62.0,41.0,29.88,West,270,0.0,0.0,46,0.00,,,0.00,,2013-02-06 04:41:00,
2013-02-05 21:52:00,62.0,42.0,29.88,West,270,0.0,0.0,47,0.00,,,0.00,,2013-02-06 04:52:00,
2013-02-05 22:01:00,61.0,41.0,29.88,West,270,0.0,0.0,48,0.00,,,0.00,,2013-02-06 05:01:00,
2013-02-05 22:11:00,61.0,41.0,29.88,West,270,0.0,0.0,48,0.00,,,0.00,,2013-02-06 05:11:00,
2013-02-05 22:22:00,61.0,42.0,29.89,West,270,0.0,0.0,50,0.00,,,0.00,,2013-02-06 05:22:00,
2013-02-05 22:31:00,60.0,42.0,29.89,West,270,0.0,0.0,51,0.00,,,0.00,,2013-02-06 05:31:00,
2013-02-05 22:41:00,60.0,42.0,29.89,West,270,0.0,0.0,51,0.00,,,0.00,,2013-02-06 05:41:00,
2013-02-05 22:53:00,60.0,42.0,29.89,West,270,0.0,0.0,51,0.00,,,0.00,,2013-02-06 05:53:00,
2013-02-05 23:01:00,60.0,42.0,29.89,West,270,0.0,0.0,51,0.00,,,0.00,,2013-02-06 06:01:00,
2013-02-05 23:11:00,60.0,42.0,29.89,West,270,0.0,0.0,51,0.00,,,0.00,,2013-02-06 06:11:00,
2013-02-05 23:21:00,59.0,42.0,29.89,West,270,0.0,0.0,54,0.00,,,0.00,,2013-02-06 06:21:00,
2013-02-05 23:31:00,59.0,42.0,29.89,West,270,0.0,0.0,54,0.00,,,0.00,,2013-02-06 06:31:00,
2013-02-05 23:42:00,59.0,42.0,29.89,West,270,0.0,0.0,54,0.00,,,0.00,,2013-02-06 06:42:00,
2013-02-05 23:51:00,59.0,43.0,29.89,West,270,0.0,0.0,56,0.00,,,0.00,,2013-02-06 06:51:00,